SCP
0 0 0 0 0 0 0 -0 0 -0 -0 0 -0 -0 -0 -0 -0 -0 -0 0 -0 -0 -0 0 0 0 0 0 0 0 0 0 0 0 0 0 0 0 0 0 0 0 0 0 0 0 0 0 0
-0 -0 0 0 -0 0 0 -0 -0 -0 -0 -0 -0 -0 -0 -0 -0 0 0 0 -0 -0 -0 -0 0 0 0 0 0 0 0 0 0 0 0 0 0 0 0 0 0 0 0 0 0 0 0 -0 0
0 0 0 0 -0 0 0 -0 -0 -0 -0 -0 0 -0 -0 -0 -0 0 0 -0 -0 -0 -0 -0 -0 -0 0 0 0 0 0 -0 0 0 0 0 0 0 0 0 0 0 0 0 0 0 0 0 0
0 0 -0 0 -0 0 0 -0 -0 -0 -0 -0 -0 -0 -0 -0 0 0 0 -0 -0 -0 -0 0 -0 -0 -0 0 -0 0 0 0 0 0 0 0 0 0 0 0 0 0 0 0 0 0 -0 -0 0
0 -0 -0 0 0 -0 -0 0 -0 -0 -0 -0 -0 -0 -0 -0 0 0 0 -0 -0 -0 -0 -0 -0 -0 -0 -0 -0 0 -0 0 0 0 0 0 0 0 0 0 0 0 -0 0 0 0 0 0 0
0 -0 -0 -0 -0 -0 0 -0 -0 -0 -0 -0 -0 -0 -0 -0 -0 0 0 0 -0 -0 0 -0 0 0 -0 -0 -0 -0 -0 -0 -0 0 0 0 -0 0 0 -0 -0 0 0 0 0 0 0 0 0
-0 0 0 -0 0 0 0 -0 -0 0 -0 -0 -0 -0 0 -0 -0 0 0 -0 -0 -0 -0 -0 -0 0 0 -0 -0 -0 -0 -0 -0 -0 -0 -0 -0 0 0 0 0 0 0 0 0 0 0 0 0
0 0 0 -0 0 0 -0 0 -0 0 -0 -0 -0 -0 -0 -0 -0 0 -0 -0 -0 -0 0 0 -0 -0 -0 0 -0 -0 -0 -0 0 0 0 0 0 0 0 0 1 0 0 0 0 0 0 0 0
0 0 0 0 0 -0 0 -0 -0 0 -0 0 -0 -0 -1 -0 -0 -0 0 0 0 0 0 0 -0 -0 -0 -0 0 0 -0 0 0 0 0 0 0 0 0 1 1 0 0 1 1 0 0 0 0
0 0 0 0 0 0 -0 0 -0 -0 0 -0 -0 -0 -1 -0 -0 -0 0 0 -0 -0 -0 -0 0 -0 -0 0 0 0 0 -0 0 0 0 0 0 0 0 1 1 1 1 1 1 1 0 0 0
-0 0 0 -0 -0 0 0 0 -0 -0 -0 -0 -0 -0 -0 -0 -0 -0 0 0 -0 -0 -0 0 -0 -0 -0 -0 -0 -0 0 0 0 0 0 0 0 0 0 0 0 0 1 1 1 1 1 1 1
-0 -0 -0 -0 0 -0 -0 0 -0 -0 -0 -0 -0 -0 0 -0 -0 -0 -0 -0 -0 -0 -0 -0 0 -0 0 0 -0 0 0 0 -0 0 0 0 0 0 0 0 0 0 0 0 1 2 2 1 1
-0 0 -0 -0 -0 -0 0 0 -0 -0 -0 -0 -0 -0 0 0 -0 -0 -0 -0 -0 -0 -0 -0 -0 -0 0 0 -0 -0 0 -0 -0 0 0 0 0 0 0 0 0 0 0 0 1 1 2 1 1
0 -0 0 -0 -0 -0 0 0 0 -0 0 0 -0 -0 0 -0 -0 -0 -0 -0 -0 -0 0 0 0 0 -0 -0 -0 0 0 0 -0 0 0 0 0 0 0 0 0 0 0 0 0 1 0 0 0
-0 0 -0 -0 0 0 -0 -0 0 0 0 0 0 -0 0 0 -0 -0 -0 -0 -0 -0 0 0 0 0 -0 -0 0 -0 0 -0 -0 -0 -0 0 0 0 0 0 0 0 0 0 0 1 0 0 0
-0 0 -0 -0 -0 -0 0 -0 0 0 0 0 0 -0 0 -0 0 0 -0 -0 -0 -0 -0 -0 -0 -0 -0 0 -0 -0 0 -0 0 0 0 0 0 0 0 0 0 0 0 0 0 0 0 0 0
0 -0 -0 -0 -0 0 0 -0 -0 0 0 0 0 0 0 -0 0 0 0 -0 -0 -0 0 0 0 -0 -0 0 0 0 0 -0 -0 0 0 0 0 0 0 0 0 0 0 0 1 0 0 0 0
0 0 0 -0 0 -0 -0 -0 -0 -0 0 0 0 0 0 0 0 -0 -0 -0 -0 -0 0 0 -0 -0 0 0 0 0 0 -0 -0 0 0 0 0 0 0 0 0 0 0 0 0 0 0 0 0
0 0 0 0 0 0 -0 -0 0 0 0 0 0 0 0 -0 -0 -0 0 -0 -0 0 0 0 -0 0 0 -0 -0 0 -0 0 0 -0 0 0 0 -0 -0 0 0 0 0 0 0 1 0 0 -0
-0 0 -0 0 -0 -0 0 -0 -0 0 -0 0 0 0 0 0 -0 0 0 -0 -0 0 0 0 0 0 0 -0 -0 0 0 -0 0 0 -0 0 -0 -0 -0 -0 0 0 0 0 0 0 0 0 0
-0 0 -0 -0 -0 0 -0 -0 -0 -0 0 -0 -0 -0 -0 -0 -0 0 0 0 0 0 0 -0 0 0 0 0 -0 0 0 0 0 0 0 0 0 -0 0 0 0 0 0 0 0 0 0 0 0
-0 -0 0 0 0 -0 0 -0 0 0 0 -0 0 -0 0 0 -0 0 0 -0 0 0 0 0 0 0 0 0 0 0 0 0 0 0 0 0 0 -0 -0 -0 0 0 0 0 0 0 -0 0 0
-0 0 -0 0 0 0 0 -0 0 0 0 -0 0 0 -0 0 0 0 -0 0 0 0 0 0 0 0 0 0 0 0 -0 0 0 -0 0 -0 0 0 -0 0 0 0 0 -0 0 0 -0 0 0
0 0 0 0 0 0 0 0 0 0 -0 0 0 -0 0 0 0 0 0 0 0 0 0 0 0 0 0 0 0 0 0 0 0 0 0 0 -0 -0 0 -0 0 0 0 0 0 0 0 0 0
0 0 0 0 0 -0 0 0 0 -0 -0 0 -0 -0 0 0 0 0 -0 -0 -0 0 0 0 0 0 0 0 -0 -0 0 0 0 -0 0 0 -0 0 -0 0 0 0 0 -0 -0 0 0 0 0
-0 -0 0 0 0 -0 0 0 0 -0 0 0 -0 -0 0 0 0 0 0 -0 -0 0 0 0 0 0 0 0 0 0 0 0 0 0 -0 -0 -0 -0 -0 0 -0 -0 0 -0 0 0 0 0 0
-0 0 0 0 0 0 0 0 0 -0 -0 0 -0 -0 -0 -0 -0 0 0 0 0 -0 0 0 0 0 0 0 0 0 0 0 0 0 0 0 0 0 -0 -0 0 0 0 0 0 0 0 0 0
0 0 0 0 0 0 0 0 -0 0 0 -0 0 0 -0 0 -0 -0 0 0 0 0 0 0 0 0 0 0 0 0 0 0 0 0 0 0 0 0 0 0 -0 0 0 0 0 0 0 0 0
0 0 0 0 0 -0 -0 0 0 0 -0 0 0 -0 -0 0 -0 0 0 0 0 0 0 0 0 0 0 0 0 0 0 0 0 0 0 0 0 0 0 0 0 0 0 0 0 0 0 0 0
0 0 0 0 0 -0 -0 -0 0 -0 0 0 -0 0 -0 -0 0 0 0 0 0 0 0 0 0 0 0 0 0 0 0 0 0 0 0 0 0 0 0 0 0 0 0 0 0 0 0 0 0
Wind_Speed_500mb
3 15 20 15 8 1 3 6 11 32 26 29 22 35 18 23 10 20 48 40 43 49 44 47 50 50 53 42 39 39 38 36 38 40 38 37 35 34 34 32 33 29 31 34 40 40 45 44 40
16 21 6 11 5 5 4 28 42 28 9 64 68 70 65 36 59 59 57 49 41 48 45 44 46 47 49 45 40 37 39 38 37 36 38 40 38 37 38 32 32 32 37 37 41 44 44 46 44
28 16 9 6 5 2 6 21 38 48 11 50 45 60 42 45 52 55 66 47 40 43 41 40 40 40 41 41 37 38 38 36 39 37 36 37 39 36 37 37 37 41 43 44 40 38 41 45 42
12 9 12 4 3 9 12 19 38 26 47 55 55 32 51 67 62 65 55 54 47 40 43 42 41 40 38 38 38 39 38 37 44 45 40 40 42 41 41 40 42 45 41 44 39 39 38 47 44
2 12 6 4 7 10 14 43 49 25 46 56 67 55 59 70 62 61 57 49 38 47 44 43 39 38 36 36 37 38 38 39 42 41 39 41 41 43 40 37 39 39 35 34 33 33 39 47 44
24 11 4 5 17 17 13 36 46 34 61 61 54 62 43 75 68 62 53 39 48 49 46 41 37 37 34 33 34 35 38 39 38 39 37 37 40 42 36 34 33 32 30 32 33 33 39 42 39
6 5 4 6 24 21 11 33 20 13 52 37 57 43 53 79 64 56 52 47 36 43 44 39 38 37 33 30 33 35 35 35 35 36 35 34 37 38 37 33 30 31 30 31 30 31 35 40 40
19 10 6 4 11 10 26 7 29 10 41 66 68 21 38 78 56 61 54 51 36 33 35 38 38 37 32 30 32 35 34 36 37 36 35 34 37 36 35 32 32 30 30 31 32 33 34 38 39
20 4 3 13 14 10 13 19 15 20 48 37 28 55 76 69 64 61 62 52 41 33 26 32 32 30 31 36 36 41 42 43 43 42 39 35 33 32 30 29 30 29 31 32 36 43 48 43 35
14 6 14 11 11 10 33 13 24 23 30 51 57 58 89 74 52 46 62 52 47 41 43 39 35 22 34 40 46 44 36 32 28 27 33 31 27 27 25 23 26 30 34 37 41 46 42 40 34
15 11 12 29 52 58 18 19 16 11 25 57 62 56 74 56 46 53 57 55 52 30 35 35 29 41 34 37 36 23 31 24 28 29 27 28 28 24 20 25 33 36 29 25 22 16 16 17 23
21 69 3 39 27 14 13 23 17 35 24 64 66 54 48 47 52 46 56 57 41 32 36 30 26 37 29 32 28 30 30 28 40 31 32 25 30 25 17 21 24 21 15 18 14 10 11 19 21
23 33 20 30 28 29 24 4 15 29 38 31 52 51 41 37 49 57 62 54 47 32 33 26 25 43 22 19 28 29 28 22 28 19 25 24 17 21 22 25 22 20 18 20 23 17 11 15 5
19 40 10 16 33 16 7 8 10 31 7 30 41 42 33 31 52 40 50 51 42 34 31 29 34 31 22 37 33 37 16 25 43 38 18 21 26 19 27 33 21 22 20 21 19 18 16 18 12
44 20 7 23 14 7 7 10 10 24 21 35 38 39 32 36 32 49 52 42 53 39 34 20 31 28 24 17 29 22 28 30 36 22 20 15 17 24 24 22 20 28 25 17 17 22 18 16 17
15 9 11 12 4 4 6 10 11 11 27 13 42 33 43 28 10 53 47 43 45 42 34 22 29 28 32 41 19 22 25 24 28 31 33 18 32 23 29 28 20 27 26 23 22 22 18 13 11
8 13 12 6 10 8 5 1 25 9 12 27 22 43 32 32 6 23 30 45 43 43 30 32 30 23 27 38 30 26 25 21 28 38 33 33 22 11 28 14 17 21 21 14 8 9 25 13 2
13 16 11 11 13 7 9 10 13 40 15 6 15 16 22 29 26 24 38 42 38 37 32 27 31 20 32 36 28 31 23 16 16 32 40 29 13 10 15 12 21 25 23 14 16 16 22 1 8
22 19 12 13 11 6 17 11 27 41 19 21 18 3 23 34 46 30 31 37 36 41 39 36 38 28 25 19 25 32 24 13 15 34 28 24 14 17 9 14 18 23 24 20 20 11 5 10 4
28 23 9 9 12 11 13 14 20 21 16 23 27 13 19 11 36 31 45 44 46 43 44 37 31 28 23 24 19 30 21 14 11 17 20 21 18 13 10 11 22 31 28 23 23 11 2 7 12
31 20 14 14 8 19 16 6 14 14 40 62 50 39 28 25 38 27 42 49 49 47 45 42 38 31 32 33 25 25 18 19 17 10 22 17 19 10 9 10 27 33 20 18 12 4 6 6 9
13 40 35 29 20 11 36 6 21 23 22 31 35 49 50 40 45 33 30 39 51 46 43 38 41 38 42 34 32 23 30 20 15 13 14 13 18 7 6 12 24 15 12 13 15 13 14 5 14
10 16 8 16 20 10 35 7 9 20 24 34 53 49 57 51 61 50 46 48 49 50 51 45 39 36 50 45 39 35 31 24 18 21 19 14 24 12 8 7 15 18 10 19 23 19 6 6 6
14 12 5 3 2 5 9 12 7 18 39 25 44 50 54 55 52 58 37 47 44 56 50 44 41 35 49 54 43 39 38 26 17 23 32 21 12 26 14 10 15 15 11 5 23 7 9 7 2
8 11 9 10 9 4 15 16 14 36 22 31 36 54 51 52 60 69 52 55 45 61 53 51 43 36 42 61 45 42 42 36 29 27 28 17 19 16 31 18 4 12 10 7 10 10 14 7 8
10 14 10 8 5 5 12 7 7 19 39 33 45 58 56 54 57 68 66 43 60 56 57 54 46 36 38 42 51 41 42 38 28 28 20 20 15 23 26 30 18 17 15 13 17 19 10 3 11
14 6 2 11 5 2 4 13 5 37 39 18 32 47 59 58 66 70 65 53 61 54 64 61 49 47 34 42 42 46 46 42 37 32 25 23 18 18 38 30 20 20 25 21 19 13 16 10 11
8 3 11 8 6 3 16 8 8 19 27 34 32 37 55 60 64 70 57 63 63 76 59 63 60 53 40 41 46 52 47 46 47 39 37 26 19 18 30 19 15 23 27 27 22 20 20 17 23
5 5 7 13 6 9 6 9 13 15 15 26 44 34 53 58 60 65 67 81 74 91 64 71 65 62 52 41 49 46 50 53 45 47 39 33 32 25 16 31 23 21 17 17 21 19 23 28 24
14 0 3 8 10 5 5 9 18 19 28 6 36 43 41 48 72 53 77 81 87 84 58 76 70 67 55 41 43 45 41 45 52 53 46 46 41 34 29 32 34 33 30 30 31 30 20 26 23
Wind_Direction_500mb
181 61 24 33 359 55 274 155 115 104 73 82 135 78 103 109 113 128 140 144 137 139 127 116 112 114 113 113 115 117 118 118 115 120 125 126 123 120 121 129 131 136 133 130 128 123 121 119 116
39 64 87 106 48 328 357 77 66 59 111 88 92 87 83 78 107 131 137 142 138 139 138 129 121 119 116 114 113 116 117 117 122 122 123 125 124 123 122 126 132 138 129 125 124 126 121 116 112
74 71 55 76 91 242 275 91 100 60 79 104 109 105 106 117 117 136 139 142 130 139 136 132 130 125 121 120 124 121 115 112 116 119 120 120 122 125 123 118 116 128 134 126 125 121 118 122 124
44 67 48 77 219 268 291 96 112 139 106 98 101 88 112 128 130 134 137 142 141 138 145 141 136 129 125 124 123 121 118 118 119 116 121 127 125 124 120 115 117 120 118 127 129 127 124 127 125
336 5 66 46 309 271 338 138 121 96 105 98 108 104 118 124 130 124 138 148 148 143 140 138 135 131 127 127 124 123 123 123 124 121 122 124 125 124 121 122 126 126 124 129 124 124 126 131 126
17 20 46 162 249 246 248 79 93 102 106 105 105 110 121 124 118 117 120 125 138 137 136 134 135 133 131 130 128 128 129 128 127 130 130 129 129 122 116 112 119 121 126 124 119 124 130 134 125
22 121 232 222 238 256 70 54 72 73 116 119 125 119 134 125 129 127 133 139 128 133 135 137 135 133 132 131 130 129 127 127 127 130 127 122 122 121 114 115 110 111 111 111 118 124 127 137 128
183 169 327 38 356 343 179 172 105 251 126 134 126 143 128 136 135 125 141 139 121 115 135 141 140 139 135 132 123 124 125 126 124 124 120 121 119 117 116 113 106 101 102 105 108 110 115 125 130
167 91 207 160 143 240 221 100 168 115 105 144 128 135 143 140 127 121 136 134 135 119 127 135 133 130 127 122 123 119 112 109 111 115 118 118 117 114 111 100 95 93 95 98 104 107 109 111 115
157 154 193 168 107 45 310 5 185 140 149 117 129 127 143 140 138 132 139 140 137 141 140 137 136 123 125 116 125 118 107 98 91 108 111 112 113 109 112 114 109 112 109 100 109 103 105 111 111
176 179 179 117 122 126 294 3 325 120 129 145 145 148 146 152 134 138 139 145 155 144 164 135 162 139 127 128 125 130 114 121 132 129 125 134 138 139 137 129 126 123 121 106 102 102 109 122 116
83 32 109 137 142 153 67 354 7 58 98 143 144 150 161 153 140 150 153 149 153 142 166 172 162 156 160 158 136 117 130 135 127 131 145 151 153 149 130 148 140 144 134 120 125 125 98 111 115
103 109 315 134 121 102 127 316 8 70 116 151 143 154 161 164 146 136 130 136 147 122 135 117 117 149 151 149 177 152 147 114 117 151 157 186 164 176 145 138 133 122 118 129 129 124 85 85 113
168 120 242 148 98 79 85 356 35 13 123 188 146 157 170 126 147 141 141 138 144 137 134 110 124 136 137 139 141 149 147 122 111 113 135 148 118 120 114 128 131 117 125 122 133 121 114 140 138
123 94 238 116 77 68 6 357 83 22 76 152 159 156 158 172 174 151 153 152 150 144 147 132 148 148 148 138 135 128 137 106 102 104 84 119 90 154 116 113 126 115 130 123 145 146 121 116 174
84 84 129 332 335 300 359 199 290 350 54 30 194 139 165 175 161 159 157 147 163 166 165 169 150 170 159 154 134 117 113 96 116 118 107 120 135 118 154 144 134 134 145 148 160 163 163 104 117
152 121 114 263 241 145 78 248 260 234 14 25 45 123 145 189 133 189 166 157 164 166 166 146 167 143 166 168 154 133 128 142 125 128 121 143 138 131 143 152 159 145 144 161 244 221 198 186 115
182 129 119 169 166 167 151 216 262 241 270 316 358 337 206 182 189 178 175 166 164 160 152 157 169 156 160 155 151 137 154 142 102 135 132 142 144 134 98 139 145 164 174 157 131 129 156 224 191
91 112 135 32 142 122 201 174 216 221 214 240 262 280 195 241 204 185 169 172 172 161 161 169 175 178 172 179 153 145 134 147 115 140 134 130 140 138 193 154 152 163 165 151 129 148 200 350 306
122 119 114 8 309 186 150 204 232 230 249 253 235 230 172 286 192 183 171 180 176 174 179 176 179 181 170 167 160 159 158 158 150 145 144 140 151 132 118 65 165 168 167 148 154 137 61 327 357
147 145 202 167 215 236 171 197 215 239 217 222 223 200 198 226 200 170 179 171 174 180 182 192 191 189 171 172 173 167 175 174 160 151 149 151 154 123 81 52 179 161 148 144 116 51 35 42 353
140 180 184 166 165 206 190 240 217 216 228 240 236 193 199 200 195 174 179 200 197 200 199 198 202 197 181 179 180 188 191 171 166 154 135 132 140 128 117 92 145 138 180 166 136 47 174 17 23
256 198 187 188 189 169 202 267 244 192 223 219 229 216 194 196 191 202 200 202 208 201 198 200 202 198 187 188 181 188 194 180 181 171 184 179 162 164 134 113 125 171 210 213 156 92 140 206 22
318 355 313 345 211 345 354 68 258 180 223 222 215 214 195 190 201 199 196 187 203 206 199 200 197 195 193 198 195 192 189 178 185 176 176 188 173 177 174 189 187 196 233 196 184 202 222 241 275
354 9 333 347 37 245 357 27 280 228 221 207 189 201 202 195 200 198 210 208 207 206 206 200 199 193 193 200 199 196 188 194 183 194 190 224 203 194 189 200 142 222 210 199 212 254 239 259 276
257 183 173 208 161 261 22 205 336 298 225 208 193 184 188 196 194 190 192 213 208 205 208 207 205 198 198 199 196 195 196 192 192 163 160 175 209 217 203 195 200 188 188 233 245 248 221 304 306
278 338 168 115 1 82 156 318 91 23 17 39 134 167 189 196 198 201 216 221 209 201 202 208 211 208 204 205 202 198 201 195 173 176 187 204 199 210 201 190 199 196 202 207 221 222 212 218 270
258 236 29 12 114 335 1 304 283 8 359 340 321 183 192 206 207 212 208 207 212 200 213 204 220 216 210 211 204 202 210 201 193 189 194 206 198 172 179 192 193 202 211 222 238 235 233 233 246
296 139 89 99 96 160 161 215 153 125 50 283 282 278 205 210 220 212 202 202 206 195 209 203 208 213 211 212 212 203 207 209 202 206 201 204 218 214 192 188 206 212 229 244 246 248 255 246 261
117 261 10 138 213 238 190 271 173 189 138 215 289 282 233 217 222 221 201 203 201 203 199 206 211 208 211 211 211 205 208 212 211 214 211 208 218 226 223 219 227 232 222 230 244 259 256 236 237
Wind_Speed_850mb
3 15 20 15 8 1 3 6 11 32 26 29 22 35 18 23 10 20 48 40 43 49 44 47 50 50 53 42 39 39 38 36 38 40 38 37 35 34 34 32 33 29 31 34 40 40 45 44 40
16 21 6 11 5 5 4 28 42 28 9 64 68 70 65 36 59 59 57 49 41 48 45 44 46 47 49 45 40 37 39 38 37 36 38 40 38 37 38 32 32 32 37 37 41 44 44 46 44
28 16 9 6 5 2 6 21 38 48 11 50 45 60 42 45 52 55 66 47 40 43 41 40 40 40 41 41 37 38 38 36 39 37 36 37 39 36 37 37 37 41 43 44 40 38 41 45 42
12 9 12 4 3 9 12 19 38 26 47 55 55 32 51 67 62 65 55 54 47 40 43 42 41 40 38 38 38 39 38 37 44 45 40 40 42 41 41 40 42 45 41 44 39 39 38 47 44
2 12 6 4 7 10 14 43 49 25 46 56 67 55 59 70 62 61 57 49 38 47 44 43 39 38 36 36 37 38 38 39 42 41 39 41 41 43 40 37 39 39 35 34 33 33 39 47 44
24 11 4 5 17 17 13 36 46 34 61 61 54 62 43 75 68 62 53 39 48 49 46 41 37 37 34 33 34 35 38 39 38 39 37 37 40 42 36 34 33 32 30 32 33 33 39 42 39
6 5 4 6 24 21 11 33 20 13 52 37 57 43 53 79 64 56 52 47 36 43 44 39 38 37 33 30 33 35 35 35 35 36 35 34 37 38 37 33 30 31 30 31 30 31 35 40 40
19 10 6 4 11 10 26 7 29 10 41 66 68 21 38 78 56 61 54 51 36 33 35 38 38 37 32 30 32 35 34 36 37 36 35 34 37 36 35 32 32 30 30 31 32 33 34 38 39
20 4 3 13 14 10 13 19 15 20 48 37 28 55 76 69 64 61 62 52 41 33 26 32 32 30 31 36 36 41 42 43 43 42 39 35 33 32 30 29 30 29 31 32 36 43 48 43 35
14 6 14 11 11 10 33 13 24 23 30 51 57 58 89 74 52 46 62 52 47 41 43 39 35 22 34 40 46 44 36 32 28 27 33 31 27 27 25 23 26 30 34 37 41 46 42 40 34
15 11 12 29 52 58 18 19 16 11 25 57 62 56 74 56 46 53 57 55 52 30 35 35 29 41 34 37 36 23 31 24 28 29 27 28 28 24 20 25 33 36 29 25 22 16 16 17 23
21 69 3 39 27 14 13 23 17 35 24 64 66 54 48 47 52 46 56 57 41 32 36 30 26 37 29 32 28 30 30 28 40 31 32 25 30 25 17 21 24 21 15 18 14 10 11 19 21
23 33 20 30 28 29 24 4 15 29 38 31 52 51 41 37 49 57 62 54 47 32 33 26 25 43 22 19 28 29 28 22 28 19 25 24 17 21 22 25 22 20 18 20 23 17 11 15 5
19 40 10 16 33 16 7 8 10 31 7 30 41 42 33 31 52 40 50 51 42 34 31 29 34 31 22 37 33 37 16 25 43 38 18 21 26 19 27 33 21 22 20 21 19 18 16 18 12
44 20 7 23 14 7 7 10 10 24 21 35 38 39 32 36 32 49 52 42 53 39 34 20 31 28 24 17 29 22 28 30 36 22 20 15 17 24 24 22 20 28 25 17 17 22 18 16 17
15 9 11 12 4 4 6 10 11 11 27 13 42 33 43 28 10 53 47 43 45 42 34 22 29 28 32 41 19 22 25 24 28 31 33 18 32 23 29 28 20 27 26 23 22 22 18 13 11
8 13 12 6 10 8 5 1 25 9 12 27 22 43 32 32 6 23 30 45 43 43 30 32 30 23 27 38 30 26 25 21 28 38 33 33 22 11 28 14 17 21 21 14 8 9 25 13 2
13 16 11 11 13 7 9 10 13 40 15 6 15 16 22 29 26 24 38 42 38 37 32 27 31 20 32 36 28 31 23 16 16 32 40 29 13 10 15 12 21 25 23 14 16 16 22 1 8
22 19 12 13 11 6 17 11 27 41 19 21 18 3 23 34 46 30 31 37 36 41 39 36 38 28 25 19 25 32 24 13 15 34 28 24 14 17 9 14 18 23 24 20 20 11 5 10 4
28 23 9 9 12 11 13 14 20 21 16 23 27 13 19 11 36 31 45 44 46 43 44 37 31 28 23 24 19 30 21 14 11 17 20 21 18 13 10 11 22 31 28 23 23 11 2 7 12
31 20 14 14 8 19 16 6 14 14 40 62 50 39 28 25 38 27 42 49 49 47 45 42 38 31 32 33 25 25 18 19 17 10 22 17 19 10 9 10 27 33 20 18 12 4 6 6 9
13 40 35 29 20 11 36 6 21 23 22 31 35 49 50 40 45 33 30 39 51 46 43 38 41 38 42 34 32 23 30 20 15 13 14 13 18 7 6 12 24 15 12 13 15 13 14 5 14
10 16 8 16 20 10 35 7 9 20 24 34 53 49 57 51 61 50 46 48 49 50 51 45 39 36 50 45 39 35 31 24 18 21 19 14 24 12 8 7 15 18 10 19 23 19 6 6 6
14 12 5 3 2 5 9 12 7 18 39 25 44 50 54 55 52 58 37 47 44 56 50 44 41 35 49 54 43 39 38 26 17 23 32 21 12 26 14 10 15 15 11 5 23 7 9 7 2
8 11 9 10 9 4 15 16 14 36 22 31 36 54 51 52 60 69 52 55 45 61 53 51 43 36 42 61 45 42 42 36 29 27 28 17 19 16 31 18 4 12 10 7 10 10 14 7 8
10 14 10 8 5 5 12 7 7 19 39 33 45 58 56 54 57 68 66 43 60 56 57 54 46 36 38 42 51 41 42 38 28 28 20 20 15 23 26 30 18 17 15 13 17 19 10 3 11
14 6 2 11 5 2 4 13 5 37 39 18 32 47 59 58 66 70 65 53 61 54 64 61 49 47 34 42 42 46 46 42 37 32 25 23 18 18 38 30 20 20 25 21 19 13 16 10 11
8 3 11 8 6 3 16 8 8 19 27 34 32 37 55 60 64 70 57 63 63 76 59 63 60 53 40 41 46 52 47 46 47 39 37 26 19 18 30 19 15 23 27 27 22 20 20 17 23
5 5 7 13 6 9 6 9 13 15 15 26 44 34 53 58 60 65 67 81 74 91 64 71 65 62 52 41 49 46 50 53 45 47 39 33 32 25 16 31 23 21 17 17 21 19 23 28 24
14 0 3 8 10 5 5 9 18 19 28 6 36 43 41 48 72 53 77 81 87 84 58 76 70 67 55 41 43 45 41 45 52 53 46 46 41 34 29 32 34 33 30 30 31 30 20 26 23
Wind_Direction_850mb
181 61 24 33 359 55 274 155 115 104 73 82 135 78 103 109 113 128 140 144 137 139 127 116 112 114 113 113 115 117 118 118 115 120 125 126 123 120 121 129 131 136 133 130 128 123 121 119 116
39 64 87 106 48 328 357 77 66 59 111 88 92 87 83 78 107 131 137 142 138 139 138 129 121 119 116 114 113 116 117 117 122 122 123 125 124 123 122 126 132 138 129 125 124 126 121 116 112
74 71 55 76 91 242 275 91 100 60 79 104 109 105 106 117 117 136 139 142 130 139 136 132 130 125 121 120 124 121 115 112 116 119 120 120 122 125 123 118 116 128 134 126 125 121 118 122 124
44 67 48 77 219 268 291 96 112 139 106 98 101 88 112 128 130 134 137 142 141 138 145 141 136 129 125 124 123 121 118 118 119 116 121 127 125 124 120 115 117 120 118 127 129 127 124 127 125
336 5 66 46 309 271 338 138 121 96 105 98 108 104 118 124 130 124 138 148 148 143 140 138 135 131 127 127 124 123 123 123 124 121 122 124 125 124 121 122 126 126 124 129 124 124 126 131 126
17 20 46 162 249 246 248 79 93 102 106 105 105 110 121 124 118 117 120 125 138 137 136 134 135 133 131 130 128 128 129 128 127 130 130 129 129 122 116 112 119 121 126 124 119 124 130 134 125
22 121 232 222 238 256 70 54 72 73 116 119 125 119 134 125 129 127 133 139 128 133 135 137 135 133 132 131 130 129 127 127 127 130 127 122 122 121 114 115 110 111 111 111 118 124 127 137 128
183 169 327 38 356 343 179 172 105 251 126 134 126 143 128 136 135 125 141 139 121 115 135 141 140 139 135 132 123 124 125 126 124 124 120 121 119 117 116 113 106 101 102 105 108 110 115 125 130
167 91 207 160 143 240 221 100 168 115 105 144 128 135 143 140 127 121 136 134 135 119 127 135 133 130 127 122 123 119 112 109 111 115 118 118 117 114 111 100 95 93 95 98 104 107 109 111 115
157 154 193 168 107 45 310 5 185 140 149 117 129 127 143 140 138 132 139 140 137 141 140 137 136 123 125 116 125 118 107 98 91 108 111 112 113 109 112 114 109 112 109 100 109 103 105 111 111
176 179 179 117 122 126 294 3 325 120 129 145 145 148 146 152 134 138 139 145 155 144 164 135 162 139 127 128 125 130 114 121 132 129 125 134 138 139 137 129 126 123 121 106 102 102 109 122 116
83 32 109 137 142 153 67 354 7 58 98 143 144 150 161 153 140 150 153 149 153 142 166 172 162 156 160 158 136 117 130 135 127 131 145 151 153 149 130 148 140 144 134 120 125 125 98 111 115
103 109 315 134 121 102 127 316 8 70 116 151 143 154 161 164 146 136 130 136 147 122 135 117 117 149 151 149 177 152 147 114 117 151 157 186 164 176 145 138 133 122 118 129 129 124 85 85 113
168 120 242 148 98 79 85 356 35 13 123 188 146 157 170 126 147 141 141 138 144 137 134 110 124 136 137 139 141 149 147 122 111 113 135 148 118 120 114 128 131 117 125 122 133 121 114 140 138
123 94 238 116 77 68 6 357 83 22 76 152 159 156 158 172 174 151 153 152 150 144 147 132 148 148 148 138 135 128 137 106 102 104 84 119 90 154 116 113 126 115 130 123 145 146 121 116 174
84 84 129 332 335 300 359 199 290 350 54 30 194 139 165 175 161 159 157 147 163 166 165 169 150 170 159 154 134 117 113 96 116 118 107 120 135 118 154 144 134 134 145 148 160 163 163 104 117
152 121 114 263 241 145 78 248 260 234 14 25 45 123 145 189 133 189 166 157 164 166 166 146 167 143 166 168 154 133 128 142 125 128 121 143 138 131 143 152 159 145 144 161 244 221 198 186 115
182 129 119 169 166 167 151 216 262 241 270 316 358 337 206 182 189 178 175 166 164 160 152 157 169 156 160 155 151 137 154 142 102 135 132 142 144 134 98 139 145 164 174 157 131 129 156 224 191
91 112 135 32 142 122 201 174 216 221 214 240 262 280 195 241 204 185 169 172 172 161 161 169 175 178 172 179 153 145 134 147 115 140 134 130 140 138 193 154 152 163 165 151 129 148 200 350 306
122 119 114 8 309 186 150 204 232 230 249 253 235 230 172 286 192 183 171 180 176 174 179 176 179 181 170 167 160 159 158 158 150 145 144 140 151 132 118 65 165 168 167 148 154 137 61 327 357
147 145 202 167 215 236 171 197 215 239 217 222 223 200 198 226 200 170 179 171 174 180 182 192 191 189 171 172 173 167 175 174 160 151 149 151 154 123 81 52 179 161 148 144 116 51 35 42 353
140 180 184 166 165 206 190 240 217 216 228 240 236 193 199 200 195 174 179 200 197 200 199 198 202 197 181 179 180 188 191 171 166 154 135 132 140 128 117 92 145 138 180 166 136 47 174 17 23
256 198 187 188 189 169 202 267 244 192 223 219 229 216 194 196 191 202 200 202 208 201 198 200 202 198 187 188 181 188 194 180 181 171 184 179 162 164 134 113 125 171 210 213 156 92 140 206 22
318 355 313 345 211 345 354 68 258 180 223 222 215 214 195 190 201 199 196 187 203 206 199 200 197 195 193 198 195 192 189 178 185 176 176 188 173 177 174 189 187 196 233 196 184 202 222 241 275
354 9 333 347 37 245 357 27 280 228 221 207 189 201 202 195 200 198 210 208 207 206 206 200 199 193 193 200 199 196 188 194 183 194 190 224 203 194 189 200 142 222 210 199 212 254 239 259 276
257 183 173 208 161 261 22 205 336 298 225 208 193 184 188 196 194 190 192 213 208 205 208 207 205 198 198 199 196 195 196 192 192 163 160 175 209 217 203 195 200 188 188 233 245 248 221 304 306
278 338 168 115 1 82 156 318 91 23 17 39 134 167 189 196 198 201 216 221 209 201 202 208 211 208 204 205 202 198 201 195 173 176 187 204 199 210 201 190 199 196 202 207 221 222 212 218 270
258 236 29 12 114 335 1 304 283 8 359 340 321 183 192 206 207 212 208 207 212 200 213 204 220 216 210 211 204 202 210 201 193 189 194 206 198 172 179 192 193 202 211 222 238 235 233 233 246
296 139 89 99 96 160 161 215 153 125 50 283 282 278 205 210 220 212 202 202 206 195 209 203 208 213 211 212 212 203 207 209 202 206 201 204 218 214 192 188 206 212 229 244 246 248 255 246 261
117 261 10 138 213 238 190 271 173 189 138 215 289 282 233 217 222 221 201 203 201 203 199 206 211 208 211 211 211 205 208 212 211 214 211 208 218 226 223 219 227 232 222 230 244 259 256 236 237